Back to catalog

SL-14 DEB

AlivePO
NORAD 26014·DEBRIS·🇷🇺 Russia

Launched Sep 28, 1991 from Plesetsk Cosmodrome

Loading…

Next Passes (next 24 hours)

TLE

FreshSource: Space-Track

Epoch: Sep 14, 2026, 07:47 UTC

1 26014U 91068Z   26257.32462869  .00000010  00000-0  24697-5 0  9993
2 26014  82.7379 278.7326 0043878 324.5611  47.8017 12.44509329222998

Track SL-14 DEB in real time with AllMySat

Download on the App Store